When you browse on this site, cookies collect data to enhance your experience and personalize the content and advertising you see.
Visit our Privacy Policy to learn more. By continuing to use the site, you agree to this use of cookies and data.

Hourly Weather Klagenfurt

Today, 13 July, Monday

Time Temperature Precipitation Wind Pressure Humidity
00:00 +9°C° 0 mm 1 mps 695 mmHg 87%
01:00 +9°C° 0 mm 1 mps 695 mmHg 86%
02:00 +9°C° 0 mm 1 mps 694 mmHg 87%
03:00 +8°C° 0 mm 1 mps 694 mmHg 88%
04:00 +8°C° 0 mm 1 mps 693 mmHg 88%
05:00 +10°C° 0 mm 1 mps 694 mmHg 82%
06:00 +12°C° 0 mm 1 mps 694 mmHg 76%
07:00 +14°C° 0 mm 1 mps 695 mmHg 68%
08:00 +16°C° 0 mm 1 mps 695 mmHg 61%
09:00 +17°C° 0 mm 2 mps 695 mmHg 53%
10:00 +19°C° 0 mm 2 mps 695 mmHg 46%
11:00 +19°C° 0 mm 2 mps 695 mmHg 44%
12:00 +20°C° 0 mm 2 mps 694 mmHg 42%
13:00 +21°C° 0 mm 3 mps 695 mmHg 41%
14:00 +20°C° 0 mm 3 mps 694 mmHg 42%
15:00 +20°C° 0 mm 2 mps 693 mmHg 44%
16:00 +20°C° 0 mm 2 mps 693 mmHg 46%
17:00 +19°C° 0 mm 2 mps 692 mmHg 55%
18:00 +18°C° 0 mm 1 mps 692 mmHg 64%
19:00 +15°C° 0 mm 1 mps 692 mmHg 73%
20:00 +14°C° 0 mm 1 mps 692 mmHg 76%
21:00 +13°C° 0 mm 1 mps 692 mmHg 79%
22:00 +11°C° 0 mm 1 mps 691 mmHg 81%
23:00 +11°C° 0 mm 1 mps 691 mmHg 82%

Tomorrow, 14 July, Tuesday

Time Temperature Precipitation Wind Pressure Humidity
00:00 +10°C° 0 mm 1 mps 691 mmHg 83%
01:00 +10°C° 0 mm 1 mps 691 mmHg 84%
02:00 +10°C° 0 mm 1 mps 691 mmHg 85%
03:00 +9°C° 0 mm 1 mps 690 mmHg 86%
04:00 +9°C° 0 mm 1 mps 690 mmHg 87%
05:00 +11°C° 0 mm 1 mps 690 mmHg 81%
06:00 +12°C° 0 mm 1 mps 691 mmHg 76%
07:00 +14°C° 0 mm 1 mps 691 mmHg 71%
08:00 +16°C° 0 mm 1 mps 691 mmHg 65%
09:00 +18°C° 0 mm 1 mps 691 mmHg 58%
10:00 +19°C° 0 mm 2 mps 691 mmHg 52%
11:00 +20°C° 0 mm 2 mps 691 mmHg 49%
12:00 +21°C° 0 mm 2 mps 691 mmHg 47%
13:00 +23°C° 0 mm 2 mps 691 mmHg 44%
14:00 +21°C° 0 mm 2 mps 690 mmHg 46%
15:00 +21°C° 0 mm 2 mps 690 mmHg 47%
16:00 +21°C° 0 mm 2 mps 690 mmHg 49%
17:00 +19°C° 0 mm 2 mps 689 mmHg 58%
18:00 +19°C° 0 mm 1 mps 689 mmHg 66%
19:00 +16°C° 0 mm 1 mps 689 mmHg 75%
20:00 +15°C° 0 mm 1 mps 689 mmHg 77%
21:00 +13°C° 0 mm 1 mps 689 mmHg 80%
22:00 +12°C° 0 mm 1 mps 689 mmHg 82%
23:00 +12°C° 0 mm 1 mps 689 mmHg 82%

Day after tomorrow, 15 July, Wednesday

Time Temperature Precipitation Wind Pressure Humidity
00:00 +11°C° 0 mm 1 mps 689 mmHg 83%
01:00 +10°C° 0 mm 0 mps 689 mmHg 83%
02:00 +10°C° 0 mm 0 mps 689 mmHg 83%
03:00 +10°C° 0 mm 0 mps 688 mmHg 84%
04:00 +10°C° 0 mm 0 mps 688 mmHg 85%
05:00 +11°C° 0 mm 0 mps 689 mmHg 80%
06:00 +13°C° 0 mm 0 mps 689 mmHg 76%
07:00 +14°C° 0 mm 0 mps 689 mmHg 71%
08:00 +16°C° 0 mm 0 mps 690 mmHg 65%
09:00 +18°C° 0 mm 0 mps 690 mmHg 60%
10:00 +22°C° 0 mm 1 mps 690 mmHg 54%
11:00 +22°C° 0.2 mm 1 mps 690 mmHg 54%
12:00 +23°C° 0.2 mm 1 mps 690 mmHg 54%
13:00 +23°C° 0.2 mm 1 mps 690 mmHg 53%
14:00 +23°C° 0.3 mm 1 mps 690 mmHg 56%
15:00 +22°C° 0.3 mm 1 mps 690 mmHg 58%
16:00 +22°C° 0.3 mm 1 mps 689 mmHg 61%
17:00 +21°C° 0.2 mm 1 mps 689 mmHg 68%
18:00 +19°C° 0.2 mm 1 mps 689 mmHg 75%
19:00 +18°C° 0.2 mm 1 mps 689 mmHg 83%
20:00 +16°C° 0.1 mm 1 mps 689 mmHg 85%
21:00 +14°C° 0.1 mm 1 mps 689 mmHg 87%
22:00 +13°C° 0.1 mm 1 mps 689 mmHg 90%
23:00 +13°C° 0 mm 1 mps 689 mmHg 90%

16 July, Thursday

Time Temperature Precipitation Wind Pressure Humidity
00:00 +13°C° 0 mm 1 mps 689 mmHg 90%
01:00 +13°C° 0 mm 1 mps 689 mmHg 91%
02:00 +12°C° 0 mm 1 mps 689 mmHg 91%
03:00 +12°C° 0 mm 1 mps 689 mmHg 91%
04:00 +12°C° 0 mm 1 mps 689 mmHg 92%
05:00 +13°C° 0 mm 1 mps 689 mmHg 89%
06:00 +13°C° 0 mm 0 mps 690 mmHg 85%
07:00 +14°C° 0 mm 0 mps 690 mmHg 82%
08:00 +18°C° 0 mm 1 mps 691 mmHg 76%
09:00 +19°C° 0 mm 1 mps 691 mmHg 70%
10:00 +21°C° 0 mm 1 mps 691 mmHg 63%
11:00 +21°C° 0.6 mm 1 mps 691 mmHg 66%
12:00 +21°C° 0.6 mm 1 mps 691 mmHg 69%
13:00 +22°C° 0.6 mm 1 mps 691 mmHg 71%
14:00 +21°C° 1 mm 1 mps 691 mmHg 77%
15:00 +20°C° 1 mm 1 mps 691 mmHg 82%
16:00 +20°C° 1 mm 1 mps 690 mmHg 88%
17:00 +19°C° 0.6 mm 1 mps 690 mmHg 90%
18:00 +18°C° 0.6 mm 1 mps 690 mmHg 92%
19:00 +15°C° 0.6 mm 1 mps 690 mmHg 93%
20:00 +15°C° 0.4 mm 1 mps 690 mmHg 94%
21:00 +14°C° 0.4 mm 0 mps 690 mmHg 96%
22:00 +13°C° 0.4 mm 0 mps 691 mmHg 97%
23:00 +13°C° 0.6 mm 0 mps 691 mmHg 97%

17 July, Friday

Time Temperature Precipitation Wind Pressure Humidity
00:00 +13°C° 0.6 mm 0 mps 691 mmHg 97%
01:00 +13°C° 0.6 mm 0 mps 691 mmHg 97%
02:00 +12°C° 0.8 mm 0 mps 690 mmHg 97%
03:00 +12°C° 0.8 mm 0 mps 690 mmHg 97%
04:00 +12°C° 0.8 mm 0 mps 690 mmHg 97%
05:00 +13°C° 0.3 mm 1 mps 690 mmHg 97%
06:00 +14°C° 0.3 mm 1 mps 690 mmHg 96%
07:00 +14°C° 0.3 mm 1 mps 691 mmHg 96%
08:00 +15°C° 0.3 mm 1 mps 691 mmHg 90%
09:00 +18°C° 0.3 mm 1 mps 691 mmHg 84%
10:00 +19°C° 0.3 mm 1 mps 692 mmHg 78%
11:00 +20°C° 0.4 mm 1 mps 692 mmHg 73%
12:00 +21°C° 0.4 mm 1 mps 692 mmHg 69%
13:00 +22°C° 0.4 mm 1 mps 692 mmHg 65%
14:00 +22°C° 0.4 mm 1 mps 691 mmHg 65%
15:00 +22°C° 0.4 mm 1 mps 691 mmHg 65%
16:00 +21°C° 0.4 mm 1 mps 691 mmHg 66%
17:00 +20°C° 0.3 mm 1 mps 691 mmHg 73%
18:00 +19°C° 0.3 mm 1 mps 690 mmHg 81%
19:00 +16°C° 0.3 mm 1 mps 690 mmHg 89%
20:00 +15°C° 0.1 mm 1 mps 690 mmHg 90%
21:00 +14°C° 0.1 mm 1 mps 691 mmHg 92%
22:00 +13°C° 0.1 mm 1 mps 691 mmHg 93%
23:00 +12°C° 0 mm 1 mps 691 mmHg 93%

18 July, Saturday

Time Temperature Precipitation Wind Pressure Humidity
00:00 +12°C° 0 mm 1 mps 691 mmHg 93%
01:00 +11°C° 0 mm 1 mps 691 mmHg 93%
02:00 +11°C° 0 mm 1 mps 691 mmHg 94%
03:00 +11°C° 0 mm 1 mps 690 mmHg 94%
04:00 +11°C° 0 mm 1 mps 690 mmHg 94%
05:00 +12°C° 0 mm 1 mps 690 mmHg 92%
06:00 +12°C° 0 mm 0 mps 691 mmHg 89%
07:00 +14°C° 0 mm 0 mps 691 mmHg 87%
08:00 +18°C° 0 mm 1 mps 691 mmHg 75%
09:00 +21°C° 0 mm 1 mps 692 mmHg 64%
10:00 +23°C° 0 mm 1 mps 692 mmHg 52%
11:00 +24°C° 0.1 mm 1 mps 692 mmHg 50%
12:00 +25°C° 0.1 mm 1 mps 692 mmHg 48%
13:00 +26°C° 0.1 mm 1 mps 692 mmHg 46%
14:00 +25°C° 0.2 mm 1 mps 692 mmHg 51%
15:00 +24°C° 0.2 mm 1 mps 691 mmHg 55%
16:00 +23°C° 0.2 mm 1 mps 691 mmHg 60%
17:00 +22°C° 0.4 mm 1 mps 691 mmHg 70%
18:00 +20°C° 0.4 mm 1 mps 690 mmHg 79%
19:00 +18°C° 0.4 mm 1 mps 690 mmHg 89%
20:00 +16°C° 0.1 mm 1 mps 691 mmHg 89%
21:00 +15°C° 0.1 mm 1 mps 691 mmHg 90%
22:00 +14°C° 0.1 mm 1 mps 691 mmHg 91%
23:00 +13°C° 0 mm 1 mps 691 mmHg 91%
Show more